STARLINK-34597

Last updated on Sat Aug 02 2025 00:02:05 GMT+0000 (Coordinated Universal Time)

1 64738U 25144Q 25213.58335648 .00067886 00000+0 16943-2 0 9998 2 64738 53.1599 124.9961 0000782 75.8399 163.2989 15.39579601 6079
UTC large
Height (km)
Speed (km/s)
/
Latitude / Longitude
Inclination (degrees)
Orbital Period (minutes)
Azimuth
Elevation
Range (km)
Doppler Factor

Next 0 passes for location: London (51.5072 / 0.1276)

Sorry there are no passes over London.